Flag for Germany Weather past 2 weeks in Paderborn, North Rhine-Westphalia, Germany

Now
64 °F

Sunny.


Feels Like: 64 °F
Forecast: 54 / 76 °F
Wind: 9 mph from Southeast

Location: Paderborn / Lippstadt

Current Time: Sep 17, 2014 at 10:30:26 AM

Latest Report: Sep 17, 2014 at 9:50 AM


Visibility: 10 mi

Pressure: 29.98 "Hg

Humidity: 73%

Dew point: 55 °F

Location of PaderbornLocation

Historic Weather in Paderborn — Graph

°F

Paderborn temperature yesterday

Maximum temperature yesterday: 72 °F (at 4:20 PM)
Minimum temperature yesterday: 57 °F (at 4:20 AM)
Average temperature yesterday: 64 °F

Past Weeks' High & Low Weather Summary

 TemperatureHumidityPressure
High75 °F (Sep 6, 2:20 PM)100% (Sep 2, 9:20 AM)30.27 "Hg (Sep 2, 9:20 AM)
Low45 °F (Sep 12, 3:50 AM)53% (Sep 6, 12:50 PM)29.89 "Hg (Sep 6, 3:20 PM)
Average60 °F85%30.09 "Hg
* Reported Sep 2 9:20 AM — Sep 17 9:20 AM, Paderborn, Weather by CustomWeather, © 2014

Note: Actual official high and low records may vary slightly from our data, if they occured in-between our weather recording intervals... More about our weather records

Advertising

Paderborn weather history for previous 24 hours

 ConditionsComfort  
Time TempWeatherWind HumidityBarometerVisibility
9:20 AM
Sep 17
61 °FSunny.8 mph83%29.98 "Hg10 mi
8:50 AM59 °FClear.8 mph88%29.98 "Hg5 mi
8:20 AM59 °FClear.7 mph94%29.98 "Hg5 mi
7:50 AM57 °FClear.8 mph94%29.98 "Hg5 mi
7:20 AM55 °FClear.7 mph100%29.98 "Hg10 mi
6:50 AM55 °FClear.6 mph100%29.98 "Hg10 mi
6:20 AM55 °FClear.6 mph100%29.98 "Hg10 mi
5:50 AM57 °FClear.7 mph94%29.98 "Hg10 mi
5:20 AM55 °FClear.7 mph100%29.98 "Hg10 mi
4:50 AM57 °FClear.6 mph94%29.98 "Hg10 mi
4:20 AM57 °FClear.6 mph94%29.98 "Hg10 mi
3:50 AM57 °FClear.5 mph100%29.98 "Hg10 mi
3:20 AM57 °FClear.5 mph100%29.98 "Hg10 mi
12:20 AM61 °FClear.6 mph88%30.01 "Hg10 mi
11:50 PM
Sep 16
61 °FClear.3 mph88%30.01 "Hg10 mi
11:20 PM63 °FClear.5 mph83%30.01 "Hg10 mi
10:50 PM63 °FClear.6 mph83%30.01 "Hg10 mi
10:20 PM64 °FClear.6 mph78%30.01 "Hg10 mi
9:50 PM64 °FClear.5 mph78%30.01 "Hg10 mi
9:20 PM64 °FClear.5 mph78%30.01 "Hg10 mi
8:50 PM63 °FClear.3 mph83%30.01 "Hg10 mi
8:20 PM64 °FSunny.3 mph73%30.01 "Hg10 mi
7:50 PM66 °FSunny.5 mph68%29.98 "Hg10 mi
7:20 PM68 °FSunny.7 mph64%29.98 "Hg10 mi
6:50 PM70 °FSunny.6 mph60%29.98 "Hg10 mi
6:20 PM70 °FSunny.8 mph57%29.98 "Hg10 mi
5:50 PM72 °FSunny.9 mph57%29.98 "Hg10 mi
5:20 PM72 °FPassing clouds.9 mph53%29.98 "HgN/A
4:50 PM72 °FPassing clouds.10 mph57%30.01 "HgN/A
4:20 PM72 °FPassing clouds.10 mph57%30.01 "HgN/A
3:50 PM70 °FPassing clouds.9 mph60%30.01 "HgN/A
3:20 PM70 °FPassing clouds.10 mph60%30.01 "HgN/A
2:50 PM70 °FPassing clouds.10 mph64%30.01 "HgN/A
2:20 PM70 °FClear.10 mph69%30.01 "Hg5 mi
1:50 PM68 °FClear.10 mph69%30.01 "Hg5 mi
1:20 PM68 °FClear.10 mph73%30.01 "Hg5 mi
12:50 PM68 °FClear.9 mph73%30.04 "Hg5 mi
12:20 PM66 °FClear.10 mph78%30.04 "Hg5 mi
11:50 AM66 °FClear.9 mph78%30.04 "Hg5 mi
11:20 AM66 °FClear.10 mph78%30.04 "Hg4 mi
10:50 AM64 °FClear.7 mph83%30.04 "Hg4 mi
10:20 AM63 °FFog.8 mph100%30.04 "Hg3 mi
Weather by CustomWeather, © 2014

See weather overviewHow to use our weather pages